When you browse on this site, cookies collect data to enhance your experience and personalize the content and advertising you see.
Visit our Privacy Policy to learn more. By continuing to use the site, you agree to this use of cookies and data.
  • In Österreich
  • Länderverzeichnis
  • Für 7 Tage
  • Wassertemperatur
  • Satellitenkarten
  • Wetterkarte
  • News
  • Widgets
  • user-avatar
    Anmelden

    Stündliche Wetter Sewan

    Heute, 20 Juni, Donnerstag

    Zeit Temperatur Niederschläge Wind Luftdruck Luftfeuchtigkeit
    00:00 +18°C° 0.3 mm 1 m/S 640 mmHg 73%
    01:00 +18°C° 0.2 mm 1 m/S 640 mmHg 73%
    02:00 +16°C° 0.2 mm 1 m/S 640 mmHg 74%
    03:00 +16°C° 0 mm 1 m/S 640 mmHg 72%
    04:00 +18°C° 0.1 mm 1 m/S 640 mmHg 72%
    05:00 +19°C° 0.1 mm 1 m/S 640 mmHg 71%
    06:00 +19°C° 0.1 mm 1 m/S 640 mmHg 71%
    07:00 +21°C° 0.4 mm 1 m/S 640 mmHg 66%
    08:00 +22°C° 0.4 mm 1 m/S 641 mmHg 62%
    09:00 +24°C° 0 mm 2 m/S 641 mmHg 56%
    10:00 +24°C° 0.8 mm 2 m/S 641 mmHg 54%
    11:00 +25°C° 0.8 mm 2 m/S 641 mmHg 51%
    12:00 +26°C° 0.8 mm 2 m/S 641 mmHg 49%
    13:00 +26°C° 0.6 mm 2 m/S 641 mmHg 47%
    14:00 +27°C° 0.6 mm 2 m/S 640 mmHg 45%
    15:00 +27°C° 0 mm 2 m/S 640 mmHg 43%
    16:00 +26°C° 0.3 mm 2 m/S 640 mmHg 47%
    17:00 +26°C° 0.3 mm 3 m/S 640 mmHg 51%
    18:00 +25°C° 0.3 mm 3 m/S 640 mmHg 55%
    19:00 +22°C° 0.2 mm 3 m/S 640 mmHg 59%
    20:00 +20°C° 0.2 mm 3 m/S 640 mmHg 63%
    21:00 +19°C° 0.2 mm 3 m/S 640 mmHg 67%
    22:00 +18°C° 0.3 mm 3 m/S 640 mmHg 71%
    23:00 +17°C° 0.3 mm 2 m/S 640 mmHg 74%

    Morgen, 21 Juni, Freitag

    Zeit Temperatur Niederschläge Wind Luftdruck Luftfeuchtigkeit
    00:00 +16°C° 0.3 mm 2 m/S 639 mmHg 78%
    01:00 +16°C° 0.4 mm 2 m/S 639 mmHg 78%
    02:00 +16°C° 0.4 mm 2 m/S 639 mmHg 78%
    03:00 +15°C° 0.4 mm 1 m/S 639 mmHg 78%
    04:00 +16°C° 0.1 mm 1 m/S 639 mmHg 76%
    05:00 +18°C° 0.1 mm 1 m/S 639 mmHg 74%
    06:00 +19°C° 0.1 mm 1 m/S 640 mmHg 72%
    07:00 +20°C° 0.4 mm 1 m/S 640 mmHg 68%
    08:00 +21°C° 0.4 mm 1 m/S 640 mmHg 64%
    09:00 +22°C° 0.4 mm 1 m/S 641 mmHg 61%
    10:00 +23°C° 1 mm 2 m/S 641 mmHg 57%
    11:00 +25°C° 1 mm 2 m/S 641 mmHg 53%
    12:00 +26°C° 1 mm 2 m/S 641 mmHg 49%
    13:00 +26°C° 0.6 mm 2 m/S 641 mmHg 48%
    14:00 +26°C° 0.6 mm 2 m/S 641 mmHg 46%
    15:00 +27°C° 0.6 mm 2 m/S 641 mmHg 45%
    16:00 +26°C° 0.4 mm 2 m/S 641 mmHg 49%
    17:00 +25°C° 0.4 mm 2 m/S 641 mmHg 53%
    18:00 +25°C° 0.4 mm 2 m/S 641 mmHg 57%
    19:00 +23°C° 0.3 mm 2 m/S 641 mmHg 61%
    20:00 +20°C° 0.3 mm 3 m/S 641 mmHg 65%
    21:00 +18°C° 0.3 mm 3 m/S 640 mmHg 69%
    22:00 +18°C° 0.1 mm 2 m/S 641 mmHg 70%
    23:00 +17°C° 0.1 mm 2 m/S 641 mmHg 71%

    übermorgen, 22 Juni, Samstag

    Zeit Temperatur Niederschläge Wind Luftdruck Luftfeuchtigkeit
    00:00 +17°C° 0.1 mm 2 m/S 641 mmHg 72%
    01:00 +17°C° 0 mm 2 m/S 640 mmHg 72%
    02:00 +16°C° 0 mm 2 m/S 640 mmHg 72%
    03:00 +16°C° 0 mm 1 m/S 640 mmHg 72%
    04:00 +18°C° 0 mm 1 m/S 641 mmHg 72%
    05:00 +18°C° 0 mm 1 m/S 641 mmHg 72%
    06:00 +19°C° 0 mm 1 m/S 642 mmHg 72%
    07:00 +21°C° 0.1 mm 1 m/S 642 mmHg 67%
    08:00 +21°C° 0.1 mm 2 m/S 643 mmHg 62%
    09:00 +24°C° 0.1 mm 2 m/S 643 mmHg 58%
    10:00 +25°C° 0.4 mm 2 m/S 643 mmHg 55%
    11:00 +26°C° 0.4 mm 2 m/S 643 mmHg 52%
    12:00 +27°C° 0.4 mm 2 m/S 643 mmHg 49%
    13:00 +27°C° 0.5 mm 2 m/S 643 mmHg 48%
    14:00 +27°C° 0.5 mm 2 m/S 643 mmHg 47%
    15:00 +28°C° 0.5 mm 2 m/S 643 mmHg 46%
    16:00 +27°C° 0.3 mm 2 m/S 643 mmHg 49%
    17:00 +27°C° 0.3 mm 2 m/S 643 mmHg 53%
    18:00 +26°C° 0.3 mm 2 m/S 642 mmHg 57%
    19:00 +24°C° 0.1 mm 3 m/S 642 mmHg 59%
    20:00 +22°C° 0.1 mm 3 m/S 642 mmHg 62%
    21:00 +20°C° 0.1 mm 3 m/S 642 mmHg 64%
    22:00 +19°C° 0.2 mm 3 m/S 642 mmHg 67%
    23:00 +19°C° 0.2 mm 3 m/S 642 mmHg 69%

    23 Juni, Sonntag

    Zeit Temperatur Niederschläge Wind Luftdruck Luftfeuchtigkeit
    00:00 +18°C° 0.2 mm 3 m/S 642 mmHg 72%
    01:00 +18°C° 0.1 mm 2 m/S 642 mmHg 72%
    02:00 +18°C° 0.1 mm 2 m/S 642 mmHg 72%
    03:00 +17°C° 0.1 mm 2 m/S 642 mmHg 72%
    04:00 +18°C° 0 mm 2 m/S 642 mmHg 71%
    05:00 +20°C° 0 mm 1 m/S 643 mmHg 70%
    06:00 +21°C° 0 mm 1 m/S 643 mmHg 70%
    07:00 +22°C° 0.1 mm 1 m/S 643 mmHg 65%
    08:00 +24°C° 0.1 mm 1 m/S 644 mmHg 61%
    09:00 +26°C° 0.1 mm 1 m/S 644 mmHg 56%
    10:00 +27°C° 0.2 mm 2 m/S 644 mmHg 52%
    11:00 +28°C° 0.2 mm 2 m/S 645 mmHg 48%
    12:00 +29°C° 0.2 mm 2 m/S 645 mmHg 44%
    13:00 +30°C° 0.1 mm 2 m/S 645 mmHg 42%
    14:00 +30°C° 0.1 mm 2 m/S 644 mmHg 40%
    15:00 +31°C° 0.1 mm 2 m/S 644 mmHg 38%
    16:00 +30°C° 0.1 mm 2 m/S 644 mmHg 44%
    17:00 +29°C° 0.1 mm 3 m/S 644 mmHg 50%
    18:00 +28°C° 0.1 mm 3 m/S 643 mmHg 56%
    19:00 +26°C° 0 mm 3 m/S 643 mmHg 57%
    20:00 +23°C° 0 mm 4 m/S 643 mmHg 59%
    21:00 +22°C° 0 mm 4 m/S 643 mmHg 60%
    22:00 +21°C° 0 mm 4 m/S 643 mmHg 61%
    23:00 +21°C° 0 mm 3 m/S 643 mmHg 61%

    24 Juni, Montag

    Zeit Temperatur Niederschläge Wind Luftdruck Luftfeuchtigkeit
    00:00 +20°C° 0 mm 3 m/S 643 mmHg 62%
    01:00 +20°C° 0 mm 3 m/S 643 mmHg 63%
    02:00 +19°C° 0 mm 3 m/S 643 mmHg 65%
    03:00 +19°C° 0 mm 2 m/S 642 mmHg 66%
    04:00 +20°C° 0 mm 2 m/S 643 mmHg 66%
    05:00 +20°C° 0 mm 2 m/S 643 mmHg 65%
    06:00 +21°C° 0 mm 2 m/S 643 mmHg 65%
    07:00 +24°C° 0 mm 1 m/S 644 mmHg 60%
    08:00 +26°C° 0 mm 1 m/S 644 mmHg 55%
    09:00 +27°C° 0 mm 1 m/S 644 mmHg 50%
    10:00 +28°C° 0.1 mm 2 m/S 644 mmHg 47%
    11:00 +29°C° 0.1 mm 2 m/S 645 mmHg 45%
    12:00 +31°C° 0.1 mm 2 m/S 645 mmHg 42%
    13:00 +31°C° 0.1 mm 2 m/S 644 mmHg 40%
    14:00 +31°C° 0.1 mm 2 m/S 644 mmHg 37%
    15:00 +32°C° 0.1 mm 2 m/S 644 mmHg 35%
    16:00 +31°C° 0.1 mm 2 m/S 644 mmHg 41%
    17:00 +30°C° 0.1 mm 2 m/S 643 mmHg 47%
    18:00 +29°C° 0.1 mm 2 m/S 643 mmHg 52%
    19:00 +27°C° 0 mm 3 m/S 643 mmHg 55%
    20:00 +26°C° 0 mm 3 m/S 643 mmHg 57%
    21:00 +23°C° 0 mm 4 m/S 643 mmHg 59%
    22:00 +22°C° 0.1 mm 4 m/S 643 mmHg 62%
    23:00 +21°C° 0.1 mm 3 m/S 643 mmHg 64%

    25 Juni, Dienstag

    Zeit Temperatur Niederschläge Wind Luftdruck Luftfeuchtigkeit
    00:00 +20°C° 0.1 mm 3 m/S 643 mmHg 66%
    01:00 +20°C° 0 mm 3 m/S 642 mmHg 67%
    02:00 +20°C° 0 mm 2 m/S 642 mmHg 68%
    03:00 +19°C° 0 mm 2 m/S 642 mmHg 69%
    04:00 +20°C° 0 mm 2 m/S 643 mmHg 68%
    05:00 +21°C° 0 mm 2 m/S 643 mmHg 66%
    06:00 +21°C° 0 mm 2 m/S 643 mmHg 65%
    07:00 +24°C° 0 mm 2 m/S 644 mmHg 60%
    08:00 +26°C° 0 mm 1 m/S 644 mmHg 56%
    09:00 +27°C° 0 mm 1 m/S 645 mmHg 51%
    10:00 +29°C° 0.1 mm 1 m/S 645 mmHg 48%
    11:00 +30°C° 0.1 mm 2 m/S 645 mmHg 44%
    12:00 +31°C° 0.1 mm 2 m/S 645 mmHg 41%
    13:00 +31°C° 0.2 mm 2 m/S 645 mmHg 41%
    14:00 +31°C° 0.2 mm 2 m/S 645 mmHg 40%
    15:00 +33°C° 0.2 mm 3 m/S 644 mmHg 39%
    16:00 +31°C° 0.2 mm 3 m/S 644 mmHg 44%
    17:00 +30°C° 0.2 mm 3 m/S 644 mmHg 49%
    18:00 +29°C° 0.2 mm 4 m/S 643 mmHg 54%
    19:00 +27°C° 0 mm 4 m/S 643 mmHg 56%
    20:00 +25°C° 0 mm 4 m/S 643 mmHg 58%
    21:00 +22°C° 0 mm 4 m/S 643 mmHg 60%
    22:00 +22°C° 0 mm 4 m/S 643 mmHg 59%
    23:00 +21°C° 0 mm 3 m/S 643 mmHg 59%
    Mehr zeigen